Beaufort, NC

2:55 AM EDT on September 18, 2019 (GMT -0400)
Smith

Weather History for KMRH - August, 2019

Change the Weather History Date:

Sunday, August 25, 2019

  Actual Average Record
Temperature  
Mean Temperature 77 °F -  
Max Temperature 81 °F 85 °F 93 °F (1978)
Min Temperature 73 °F 69 °F 58 °F (1952)
Cooling Degree Days 12    
Growing Degree Days 27 (Base 50)    
Moisture  
Dew Point 69 °F    
Average Humidity 78    
Maximum Humidity 91    
Minimum Humidity 65    
Precipitation  
Precipitation 0.00 in - - ()
Sea Level Pressure  
Sea Level Pressure 30.02 in    
Wind  
Wind Speed 12 mph (NNE)    
Max Wind Speed 22 mph    
Max Gust Speed 30 mph    
Visibility 10 miles    
Events Rain    
Averages and records for this station are not official NWS values.
T = Trace of Precipitation, MM = Missing Value Source: NWS Daily Summary

Daily Weather History Graph

Daily Weather History Graph

Search for Another Location

Airport or City:

Astronomy

Aug. 25, 2019 Rise Set
Actual Time 6:34 AM EDT 7:42 PM EDT
Civil Twilight 6:08 AM EDT 8:08 PM EDT
Nautical Twilight 5:37 AM EDT 8:39 PM EDT
Astronomical Twilight 5:04 AM EDT 9:11 PM EDT
Moon 1:14 AM EDT (8/25) 3:53 PM EDT (8/25)
Length of Visible Light 14h 00m
Length of Day
13h 08m
Waning Crescent, 29% of the Moon is Illuminated
Aug 25
Waning Crescent
Aug 30
New
Sep 5
First Quarter
Sep 14
Full
Sep 21
Last Quarter

Hourly Weather History & Observations

Time (EDT) Temp. Heat Index Dew Point Humidity Pressure Visibility Wind Dir Wind Speed Gust Speed Precip Events Conditions
12:58 AM 73.9 °F - 66.9 °F 79% 30.06 in 10.0 mi NNE 9.2 mph - N/A   Clear
1:58 AM 73.0 °F - 68.0 °F 84% 30.04 in 10.0 mi NNE 9.2 mph - N/A   Mostly Cloudy
2:58 AM 73.9 °F - 69.1 °F 85% 30.02 in 10.0 mi NNE 6.9 mph - N/A   Mostly Cloudy
3:28 AM 73.9 °F - 70.0 °F 87% 30.02 in 10.0 mi NNE 9.2 mph - N/A   Overcast
3:58 AM 75.9 °F - 70.0 °F 82% 30.02 in 10.0 mi North 9.2 mph - N/A   Scattered Clouds
4:58 AM 73.9 °F - 71.1 °F 91% 30.00 in 10.0 mi NNE 10.4 mph - N/A   Clear
5:58 AM 73.9 °F - 71.1 °F 91% 30.01 in 10.0 mi NNE 8.1 mph - N/A   Mostly Cloudy
6:58 AM 73.9 °F - 71.1 °F 91% 30.01 in 10.0 mi NNE 10.4 mph - N/A   Partly Cloudy
7:35 AM 73.9 °F - 71.1 °F 91% 30.02 in 8.0 mi NNE 11.5 mph - 0.00 in Rain Light Rain
7:58 AM 75.0 °F - 72.0 °F 90% 30.02 in 10.0 mi NNE 12.7 mph 19.6 mph 0.00 in   Overcast
8:20 AM 75.0 °F - 71.1 °F 87% 30.02 in 10.0 mi NNE 16.1 mph 20.7 mph N/A   Overcast
8:58 AM 75.0 °F - 71.1 °F 87% 30.02 in 10.0 mi NNE 12.7 mph - N/A   Overcast
9:39 AM 75.9 °F - 71.1 °F 85% 30.02 in 10.0 mi NNE 11.5 mph - N/A   Overcast
9:58 AM 77.0 °F - 70.0 °F 79% 30.02 in 10.0 mi NNE 17.3 mph 25.3 mph N/A   Overcast
10:58 AM 77.0 °F - 70.0 °F 79% 30.04 in 10.0 mi NNE 15.0 mph 25.3 mph N/A   Overcast
11:58 AM 80.1 °F 82.9 °F 69.1 °F 69% 30.03 in 10.0 mi NE 12.7 mph 24.2 mph N/A   Overcast
12:58 PM 79.0 °F - 69.1 °F 72% 30.02 in 10.0 mi NNE 10.4 mph - N/A   Overcast
1:58 PM 77.0 °F - 68.0 °F 74% 30.02 in 10.0 mi NNE 20.7 mph 29.9 mph N/A   Overcast
2:58 PM 79.0 °F - 66.9 °F 66% 30.01 in 10.0 mi NNE 19.6 mph 29.9 mph N/A   Overcast
3:35 PM 79.0 °F - 66.9 °F 66% 30.00 in 10.0 mi NNE 18.4 mph 25.3 mph N/A   Overcast
3:58 PM 79.0 °F - 66.9 °F 66% 30.00 in 10.0 mi NNE 16.1 mph 26.5 mph N/A   Overcast
4:58 PM 81.0 °F 83.8 °F 68.0 °F 65% 30.00 in 10.0 mi NNE 21.9 mph 28.8 mph N/A   Overcast
5:58 PM 78.1 °F - 66.9 °F 68% 30.01 in 10.0 mi NNE 16.1 mph 26.5 mph N/A   Overcast
6:14 PM 78.1 °F - 68.0 °F 71% 30.00 in 10.0 mi NNE 13.8 mph 27.6 mph N/A   Overcast
6:58 PM 77.0 °F - 68.0 °F 74% 30.01 in 10.0 mi NNE 12.7 mph - N/A   Overcast
7:58 PM 75.9 °F - 66.0 °F 71% 30.02 in 10.0 mi NNE 15.0 mph 23.0 mph N/A   Scattered Clouds
8:58 PM 75.9 °F - 64.9 °F 69% 30.03 in 10.0 mi NNE 11.5 mph 25.3 mph N/A   Overcast
9:58 PM 75.0 °F - 66.0 °F 73% 30.04 in 10.0 mi NNE 12.7 mph 24.2 mph N/A   Overcast
10:58 PM 75.0 °F - 66.0 °F 73% 30.03 in 10.0 mi NE 13.8 mph 20.7 mph N/A   Clear
11:58 PM 73.9 °F - 64.9 °F 73% 30.04 in 10.0 mi NNE 12.7 mph 18.4 mph N/A   Scattered Clouds